Regional Weather Roundup
Issued by NWS

Home | Current Version | Previous Version | Graphics & Text | Print | Product List | Glossary Off
Versions: 1 2 3 4 5 6 7 8 9 10 11 12 13 14 15 16 17 18 19 20 21 22 23 24 25 26 27 28 29 30 31 32 33 34 35 36 37 38 39 40 41 42 43 44 45 46 47 48 49 50

000
ASUS43 KTOP 240659
RWRKS

WEATHER ROUNDUP FOR KANSAS
NATIONAL WEATHER SERVICE GOODLAND KS
200 AM CDT SUN JUL 24 2016

NOTE:  "FAIR" INDICATES FEW OR NO CLOUDS BELOW 12,000 FEET WITH NO
SIGNIFICANT WEATHER AND/OR OBSTRUCTIONS TO VISIBILITY.

KSZ001>006-013>018-027>032-041>047-240800-
NORTHWEST KANSAS

CITY           SKY/WX    TMP DP  RH WIND       PRES   REMARKS
GOODLAND       MOCLDY    74  58  57 NW9       30.02F
HAYS           MOCLDY    82  57  42 S8        29.88S
HILL CITY      CLOUDY    76  69  79 N12       29.89S
RUSSELL        CLOUDY    86  61  42 S16       29.85F
$$

KSZ061>065-074>080-084>089-240800-
SOUTHWEST KANSAS

CITY           SKY/WX    TMP DP  RH WIND       PRES   REMARKS
DODGE CITY     CLOUDY    80  61  52 S9        29.94R
ELKHART          N/A     81  61  50 NW5         N/A
GARDEN CITY    RAIN      74  65  73 W18       29.97R
GREAT BEND     CLOUDY    82  61  47 S7        29.89S
LIBERAL        PTCLDY    75  61  60 S8        29.99R THUNDER
$$

KSZ066>073-081>083-090>101-240800-
SOUTHEAST KANSAS

CITY           SKY/WX    TMP DP  RH WIND       PRES   REMARKS
CHANUTE        CLEAR     78  71  79 S7        29.89F
COFFEYVILLE    CLEAR     80  72  76 S7        29.89F
HUTCHINSON     PTCLDY    85  65  51 S10       29.89R
NEWTON         CLEAR     85  68  56 S14       29.90S
PARSONS        CLEAR     80  71  74 S3        29.90F
WICHITA INTL   CLOUDY    83  67  58 S9        29.89R
WICHITA JABRA  PTCLDY    84  68  58 S10       29.89S
WINFIELD       PTCLDY    83  69  62 S7        29.90F
$$

KSZ007>012-019>026-033>040-048>060-102>105-240800-
NORTHEAST KANSAS

CITY           SKY/WX    TMP DP  RH WIND       PRES   REMARKS
CONCORDIA      CLOUDY    82  68  62 S13       29.86R
EMPORIA        MOCLDY    82  70  66 S12       29.88S
LAWRENCE       CLEAR     81  72  74 SE5       29.87S
MANHATTAN      CLEAR     87  68  52 S12       29.85R
OLATHE IND     CLEAR     80  73  79 S8        29.89F
OLATHE EXE     CLOUDY    80  72  76 MISG      29.89F
SALINA         PTCLDY    87  67  51 S13       29.85R
TOPEKA BILLARD CLOUDY    85  69  58 S9        29.85S
TOPEKA FORBES  LGT RAIN  84  71  65 S12       29.86S
$$



USA.gov is the U.S. government's official web portal to all federal, state and local government web resources and services.